Terminal Aerodrome Forecast
Issued by NWS Omaha/Valley, NE

Home | Current Version | Previous Version | Graphics & Text | Print | Product List | Glossary On
Versions: 1 2 3 4 5 6 7 8 9 10 11 12 13 14 15 16 17 18 19 20 21 22 23 24 25 26 27 28 29 30 31 32 33 34 35 36 37 38 39
000
FTUS43 KOAX 270106 AAB
TAFOFK
TAF AMD
KOFK 270106Z 2701/2724 34012KT 1 1/2SM -SN BR OVC009
      TEMPO 2704/2708 3/4SM -SN BKN005
     FM271100 31008KT P6SM OVC015
     FM271600 30007KT P6SM SCT020=

USA.gov is the U.S. government's official web portal to all federal, state and local government web resources and services.